OPS 4682 DEB, 38390

Orbit data source: Space-Track

OPS 4682 DEB, 38390 is space debris in LEO originally from a launch on Sat, 03 Apr 1965 UTC launched from the Air Force Western Test Range (AFWTR). Debris objects in space refer to the collection of defunct objects orbiting the Earth. Examples of debris include non-operational satellites, rocket bodies, and fragments generated from explosions, collisions, or faulty payload assembly.

Loading next visibility...
Identifier
38390, 1965-027CT
Orbit
LEO
Country
Flag of USUS
Related business
Manufacturer
Unknown
Mission
Spacecraft
Bus & Motor
Unknown
Mass
Unknown
Launch date (UTC)
1965-04-03 (61 years ago)
Launch vehicle
Unknown
Launch site
Air Force Western Test Range (AFWTR)
Object type
Payload
Rocket body
Debris
Shape & HBR
Unknown shape, 0.1 m
Radar Cross Section
Small (<0.1 m²)

Expand to show TLE details & history
Last TLE update: 8 hours ago

TLE from 8 hours ago
0 OPS 4682 DEB
1 38390U 65027CT  26119.41384564  .00000740  00000-0  25103-2 0  9991
2 38390  90.2351 357.9232 0029463 184.9557 175.1276 12.97754545606379
Epoch: 2026-04-29T09:55Z
TLE epoch observation values (Epoch: 2026-04-29T09:55:56.263Z)
Latitude
-0.00006°
Longitude
-8.43638°
Altitude
1,296.237 km
Speed
7.198 km/s
True Right ascension
23h 51m 41s
True Declination
0° 00' 00"
Sunlit
Object was in daylight at epoch
Visualization orbit readout
Latitude
Unknown
Longitude
Unknown
Altitude
Unknown
Speed
Unknown
Apparent Right ascension
Unknown
Apparent Declination
Unknown
Sunlit
N/A
Visualization observer readout
Local Sidereal Time
01:45:51
Azimuth
Unknown
Elevation
Unknown
Doppler factor
Unknown
Orbital elements
Apogee altitude
1,290.555 km
Perigee altitude
1,245.5 km
Semi-major axis
7,646.164 km
Eccentricity
0.00295
Inclination
90.2351°
RAAN
357.9232°
Arg. of periapsis
184.9557°
True anomaly
175.15617°
Mean anomaly
175.1276°
Eccentric anomaly
175.1419°
Mean motion
3.24622 °/min
Orbital period
110.9 mins
BSTAR
0.0025103
Loading maneuver chart data...
Computing Atmospheric mass density...
Loading historical data...
Loading historical data...
Loading historical data...
Loading historical data...
Loading historical data...
Loading historical data...
Loading historical data...

Documentation

Showing up to 5 results
|